Location: Newark
(37.8333°N, 119.5000°W)
Time: 06:36:44
(UTC+00:00)

Transit 4A - All Passes

Search period start: 24 August 2019 00:00
Search period end: 03 September 2019 00:00
Orbit: 863 x 981 km, 66.8° (Epoch: 22 August)

Date Brightness Start Highest point End Pass type
(mag) Time Alt. Az. Time Alt. Az. Time Alt. Az.
24 Aug - 00:52:34 10° S 00:58:36 46° ESE 01:04:41 10° NE daylight
24 Aug - 02:39:32 10° WSW 02:45:08 31° NW 02:50:47 10° N daylight
24 Aug - 09:57:35 10° NNW 10:03:16 36° NE 10:08:45 10° ESE visible
24 Aug - 11:44:04 10° NW 11:49:32 35° WSW 11:54:50 10° S visible
25 Aug - 01:01:31 10° SSW 01:07:51 70° ESE 01:14:14 10° NNE daylight
25 Aug - 02:49:53 10° W 02:54:48 22° NW 02:59:42 10° N daylight
25 Aug - 08:23:42 10° NNE 08:24:52 11° NE 08:26:03 10° NE visible
25 Aug - 10:06:44 10° NNW 10:12:46 53° ENE 10:18:34 10° SE visible
25 Aug - 11:54:03 10° NW 11:58:38 23° WSW 12:03:07 10° SSW visible
25 Aug - 23:28:12 10° SE 23:31:37 15° ESE 23:35:01 10° ENE daylight
26 Aug - 01:10:46 10° SSW 01:17:10 81° WNW 01:23:37 10° NNE daylight
26 Aug - 03:00:41 10° W 03:04:32 16° NW 03:08:24 10° N visible
26 Aug - 08:31:21 10° N 08:34:45 15° NE 08:38:04 10° ENE visible
26 Aug - 10:15:59 10° NNW 10:22:10 79° ENE 10:28:07 10° SSE visible
26 Aug - 12:04:42 10° WNW 12:07:40 14° WSW 12:10:36 10° SW visible
26 Aug - 23:35:46 10° SSE 23:40:39 24° ESE 23:45:34 10° NE daylight
27 Aug - 01:20:18 10° SW 01:26:35 56° WNW 01:32:53 10° NNE daylight
27 Aug - 03:12:16 10° WNW 03:14:24 12° NW 03:16:31 10° NNW visible
27 Aug - 08:39:58 10° N 08:44:30 21° NE 08:48:56 10° E visible
27 Aug - 10:25:22 10° NNW 10:31:29 70° WSW 10:37:22 10° SSE visible
27 Aug - 23:44:03 10° S 23:49:47 36° ESE 23:55:31 10° NE daylight
28 Aug - 01:30:08 10° WSW 01:36:04 39° NW 01:42:01 10° NNE daylight
28 Aug - 08:48:52 10° N 08:54:10 29° NE 08:59:19 10° ESE visible
28 Aug - 10:34:55 10° NW 10:40:43 46° WSW 10:46:19 10° S visible
28 Aug - 23:52:48 10° S 23:58:58 54° ESE 00:05:11 10° NE daylight
29 Aug - 01:40:17 10° WSW 01:45:39 28° NW 01:51:03 10° N daylight
29 Aug - 08:57:55 10° NNW 09:03:44 41° NE 09:09:20 10° SE visible
29 Aug - 10:44:41 10° NW 10:49:51 30° WSW 10:54:54 10° SSW visible
29 Aug - 22:21:33 10° ESE 22:22:54 11° E 22:24:15 10° E daylight
30 Aug - 00:01:51 10° SSW 00:08:15 80° ESE 00:14:40 10° NNE daylight
30 Aug - 01:50:47 10° W 01:55:20 20° NW 01:59:54 10° N daylight
30 Aug - 07:23:15 10° NNE 07:25:29 12° NE 07:27:40 10° ENE visible
30 Aug - 09:07:06 10° NNW 09:13:12 61° ENE 09:19:04 10° SE visible
30 Aug - 10:54:50 10° WNW 10:58:55 19° WSW 11:02:57 10° SSW visible
30 Aug - 22:27:50 10° SE 22:31:54 18° ESE 22:35:59 10° ENE daylight
31 Aug - 00:11:13 10° SW 00:17:36 71° WNW 00:24:00 10° NNE daylight
31 Aug - 02:01:47 10° WNW 02:05:07 14° NW 02:08:28 10° N daylight
31 Aug - 07:31:28 10° N 07:35:19 17° NE 07:39:04 10° E visible
31 Aug - 09:16:24 10° NNW 09:22:34 90° WSW 09:28:30 10° SSE visible
31 Aug - 11:06:05 10° W 11:07:56 11° W 11:09:46 10° WSW night (unlit)
31 Aug - 22:35:44 10° SSE 22:40:59 27° ESE 22:46:15 10° NE daylight
01 Sep - 00:20:52 10° SW 00:27:02 49° WNW 00:33:13 10° NNE daylight
01 Sep - 02:14:18 10° NW 02:15:01 10° NW 02:15:44 10° NNW daylight
01 Sep - 07:40:13 10° N 07:45:03 23° NE 07:49:44 10° E visible
01 Sep - 09:25:51 10° NW 09:31:50 60° WSW 09:37:38 10° SSE visible
01 Sep - 22:44:12 10° S 22:50:08 41° ESE 22:56:04 10° NE daylight
02 Sep - 00:30:48 10° WSW 00:36:33 34° NW 00:42:20 10° NNE daylight
02 Sep - 07:49:09 10° N 07:54:40 33° NE 07:59:59 10° ESE visible
02 Sep - 09:35:27 10° NW 09:41:03 39° WSW 09:46:28 10° S visible
02 Sep - 22:53:04 10° SSW 22:59:21 62° ESE 23:05:40 10° NE daylight
